User: anonymous   Login
Location: Unspecified
(0.0000°N, 0.0000°E)
Time: 05:15:47
(UTC+00:00)
Language:

ACS3 Solar Sail - Orbit

View from above orbital plane
View from above orbital plane
View from above satellite
View from above satellite

Ground track
Ground track

The orbit is defined by the following mean orbital elements,

1 59588U          26074.83366376 +.00000000 +00000-0 +11528-1 0 00007
2 59588  97.2032  14.5642 0065204  61.8624 298.9109 13.89880275    05
Epoch (UTC): 15 March 2026 20:00:28
Eccentricity: 0.0065204
inclination: 97.2032°
perigee height: 881 km
apogee height: 977 km
right ascension of ascending node: 14.5642°
argument of perigee: 61.8624°
revolutions per day: 13.89880275
mean anomaly at epoch: 298.9109°

The dashed part of the orbit path shows where the satellite is in the earth's shadow,  

DLR